DLH4HU EDDM-EPWA

Flight info

Callsign DLH4HU
Flight time 1h 7m
Altitude 35000
Route BIBAG2E/08R BIBAG Y133 BEPAS DCT VLM DCT ENORU DCT VAGSA N871 OKENO Q277 AGAVA
Aircraft A321/M-SDE3FGHIRWY/LB1

Departure

Time 2026-05-04 15:34
Airport Munich Airport (EDDM)

Arrival

Time 2026-05-04 16:41
Airport Warsaw Chopin Airport (EPWA)
Time Latitude Longitude Altitude Speed Heading
2026-05-04 14:52 48.35282 11.79770 1478 ft 0 kts 83°
2026-05-04 15:22 48.35280 11.79741 1476 ft 4 kts 83°
2026-05-04 15:23 48.35277 11.79701 1477 ft 4 kts 83°
2026-05-04 15:23 48.35275 11.79669 1476 ft 4 kts 76°
2026-05-04 15:23 48.35264 11.79635 1485 ft 4 kts 36°
2026-05-04 15:23 48.35244 11.79626 1474 ft 4 kts 353°
2026-05-04 15:24 48.35226 11.79629 1478 ft 0 kts 353°
2026-05-04 15:26 48.35211 11.79565 1485 ft 8 kts 184°
2026-05-04 15:27 48.35149 11.79574 1485 ft 10 kts 173°
2026-05-04 15:27 48.34996 11.79584 1475 ft 12 kts 197°
2026-05-04 15:28 48.34891 11.79553 1482 ft 7 kts 174°
2026-05-04 15:28 48.34815 11.79554 1482 ft 13 kts 198°
2026-05-04 15:28 48.34763 11.79186 1485 ft 24 kts 263°
2026-05-04 15:29 48.34743 11.78930 1485 ft 25 kts 264°
2026-05-04 15:30 48.34660 11.77852 1485 ft 27 kts 263°
2026-05-04 15:30 48.34596 11.77004 1482 ft 28 kts 264°
2026-05-04 15:31 48.34549 11.76422 1473 ft 28 kts 263°
2026-05-04 15:31 48.34527 11.76128 1485 ft 28 kts 263°
2026-05-04 15:32 48.34466 11.75331 1485 ft 22 kts 263°
2026-05-04 15:32 48.34309 11.75235 1480 ft 16 kts 173°
2026-05-04 15:33 48.34097 11.75292 1480 ft 13 kts 127°
2026-05-04 15:34 48.34282 11.77826 1482 ft 171 kts 82°
2026-05-04 15:34 48.34440 11.79658 2061 ft 175 kts 81°
2026-05-04 15:34 48.34716 11.83453 3232 ft 199 kts 84°
2026-05-04 15:35 48.35054 11.88047 3712 ft 243 kts 83°
2026-05-04 15:35 48.35252 11.90620 4330 ft 250 kts 83°
2026-05-04 15:35 48.35292 11.93226 5110 ft 251 kts 100°
2026-05-04 15:36 48.33964 11.98352 6238 ft 274 kts 115°
2026-05-04 15:36 48.33176 12.00977 6985 ft 277 kts 115°
2026-05-04 15:36 48.32387 12.03645 7722 ft 281 kts 112°
2026-05-04 15:37 48.31993 12.06607 8063 ft 304 kts 89°
2026-05-04 15:37 48.32287 12.09875 8293 ft 326 kts 82°
2026-05-04 15:37 48.32689 12.13287 8835 ft 335 kts 81°
2026-05-04 15:37 48.33112 12.16758 9486 ft 340 kts 82°
2026-05-04 15:38 48.33541 12.20284 10113 ft 345 kts 82°
2026-05-04 15:38 48.33967 12.23864 10744 ft 349 kts 82°
2026-05-04 15:38 48.34381 12.27417 11379 ft 352 kts 82°
2026-05-04 15:38 48.34800 12.31060 12020 ft 355 kts 82°
2026-05-04 15:39 48.35220 12.34746 12668 ft 359 kts 83°
2026-05-04 15:39 48.35641 12.38459 13319 ft 362 kts 83°
2026-05-04 15:39 48.36490 12.45992 14495 ft 369 kts 83°
2026-05-04 15:40 48.36919 12.49820 15057 ft 372 kts 83°
2026-05-04 15:40 48.37348 12.53674 15626 ft 375 kts 83°
2026-05-04 15:40 48.37777 12.57528 16194 ft 379 kts 83°
2026-05-04 15:40 48.38216 12.61459 16760 ft 382 kts 83°
2026-05-04 15:41 48.38654 12.65425 17319 ft 385 kts 83°
2026-05-04 15:41 48.39093 12.69427 17840 ft 389 kts 83°
2026-05-04 15:41 48.39534 12.73430 18335 ft 392 kts 82°
2026-05-04 15:41 48.40262 12.77414 18779 ft 398 kts 72°
2026-05-04 15:42 48.41182 12.81318 19246 ft 401 kts 72°
2026-05-04 15:42 48.42115 12.85296 19716 ft 404 kts 72°
2026-05-04 15:42 48.43045 12.89301 20187 ft 406 kts 72°
2026-05-04 15:42 48.43976 12.93336 20638 ft 409 kts 72°
2026-05-04 15:43 48.44912 12.97400 21082 ft 412 kts 72°
2026-05-04 15:43 48.45855 13.01501 21523 ft 415 kts 72°
2026-05-04 15:43 48.46801 13.05621 21956 ft 417 kts 71°
2026-05-04 15:43 48.47959 13.09658 22358 ft 421 kts 61°
2026-05-04 15:44 48.49576 13.13282 22761 ft 424 kts 50°
2026-05-04 15:44 48.51658 13.16449 23181 ft 425 kts 38°
2026-05-04 15:44 48.54097 13.18992 23579 ft 426 kts 28°
2026-05-04 15:44 48.56673 13.21254 23936 ft 429 kts 28°
2026-05-04 15:45 48.59226 13.23505 24307 ft 431 kts 28°
2026-05-04 15:45 48.61822 13.25809 24677 ft 433 kts 29°
2026-05-04 15:45 48.64432 13.28137 25044 ft 435 kts 29°
2026-05-04 15:45 48.67040 13.30471 25423 ft 436 kts 29°
2026-05-04 15:46 48.69583 13.33001 25776 ft 440 kts 39°
2026-05-04 15:46 48.71645 13.36365 26105 ft 443 kts 52°
2026-05-04 15:46 48.73497 13.40113 26465 ft 445 kts 53°
2026-05-04 15:46 48.75346 13.43892 26809 ft 448 kts 53°
2026-05-04 15:47 48.77201 13.47709 27137 ft 450 kts 53°
2026-05-04 15:47 48.79059 13.51541 27479 ft 452 kts 53°
2026-05-04 15:47 48.80929 13.55400 27840 ft 454 kts 53°
2026-05-04 15:47 48.82782 13.59215 28160 ft 456 kts 53°
2026-05-04 15:48 48.84671 13.63099 28491 ft 458 kts 53°
2026-05-04 15:48 48.86572 13.67010 28829 ft 460 kts 53°
2026-05-04 15:48 48.90389 13.74882 29479 ft 464 kts 53°
2026-05-04 15:49 48.92309 13.78851 29817 ft 466 kts 53°
2026-05-04 15:49 48.94211 13.82788 30112 ft 468 kts 52°
2026-05-04 15:49 48.96140 13.86787 30363 ft 470 kts 52°
2026-05-04 15:49 48.98074 13.90803 30615 ft 471 kts 52°
2026-05-04 15:50 49.00017 13.94849 30853 ft 473 kts 53°
2026-05-04 15:50 49.01969 13.98926 31084 ft 475 kts 53°
2026-05-04 15:50 49.03917 14.03006 31304 ft 477 kts 53°
2026-05-04 15:50 49.05846 14.07052 31532 ft 478 kts 53°
2026-05-04 15:51 49.07804 14.11158 31850 ft 477 kts 52°
2026-05-04 15:51 49.09754 14.15249 32163 ft 476 kts 52°
2026-05-04 15:51 49.11712 14.19359 32455 ft 477 kts 52°
2026-05-04 15:51 49.13662 14.23452 32730 ft 477 kts 52°
2026-05-04 15:52 49.15609 14.27548 33023 ft 476 kts 52°
2026-05-04 15:52 49.17531 14.31597 33322 ft 475 kts 52°
2026-05-04 15:52 49.19470 14.35687 33692 ft 473 kts 52°
2026-05-04 15:52 49.21398 14.39772 34004 ft 472 kts 52°
2026-05-04 15:53 49.23313 14.43845 34265 ft 471 kts 52°
2026-05-04 15:53 49.25205 14.47869 34523 ft 471 kts 52°
2026-05-04 15:53 49.27119 14.51946 34766 ft 470 kts 52°
2026-05-04 15:53 49.29027 14.56019 34928 ft 470 kts 52°
2026-05-04 15:54 49.32785 14.64039 34966 ft 462 kts 52°
2026-05-04 15:54 49.36532 14.72033 34967 ft 461 kts 52°
2026-05-04 15:55 49.40266 14.80046 34967 ft 460 kts 52°
2026-05-04 15:55 49.43963 14.88025 34967 ft 460 kts 53°
2026-05-04 15:56 49.47675 14.96056 34982 ft 460 kts 52°
2026-05-04 15:56 49.51385 15.04080 34979 ft 460 kts 52°
2026-05-04 15:57 49.55064 15.12069 34986 ft 460 kts 52°
2026-05-04 15:57 49.58767 15.20139 34987 ft 460 kts 53°
2026-05-04 15:58 49.62455 15.28217 34984 ft 460 kts 53°
2026-05-04 15:58 49.66114 15.36250 34988 ft 459 kts 53°
2026-05-04 15:59 49.69769 15.44289 34988 ft 459 kts 53°
2026-05-04 15:59 49.73446 15.52392 34978 ft 459 kts 53°
2026-05-04 16:00 49.76495 15.59126 34982 ft 459 kts 53°
2026-05-04 16:00 49.80746 15.68564 34982 ft 458 kts 53°
2026-05-04 16:01 49.83778 15.75325 34990 ft 458 kts 53°
2026-05-04 16:01 49.88008 15.84770 34988 ft 458 kts 53°
2026-05-04 16:02 49.91029 15.91534 34985 ft 458 kts 53°
2026-05-04 16:03 49.96462 16.03747 34987 ft 458 kts 53°
2026-05-04 16:03 50.00057 16.11863 34986 ft 458 kts 53°
2026-05-04 16:04 50.03670 16.20033 34983 ft 457 kts 53°
2026-05-04 16:04 50.09043 16.32251 34997 ft 456 kts 53°
2026-05-04 16:05 50.12629 16.40437 34997 ft 456 kts 53°
2026-05-04 16:06 50.17958 16.52646 34998 ft 456 kts 53°
2026-05-04 16:07 50.25088 16.69059 34995 ft 456 kts 54°
2026-05-04 16:08 50.32175 16.85468 34992 ft 456 kts 54°
2026-05-04 16:09 50.40986 17.06032 34996 ft 455 kts 54°
2026-05-04 16:10 50.47996 17.22530 34985 ft 455 kts 54°
2026-05-04 16:11 50.54991 17.39071 34983 ft 455 kts 54°
2026-05-04 16:12 50.65449 17.63995 34984 ft 454 kts 55°
2026-05-04 16:13 50.72363 17.80595 34978 ft 453 kts 55°
2026-05-04 16:14 50.79247 17.97241 34970 ft 453 kts 55°
2026-05-04 16:15 50.84390 18.09785 34773 ft 451 kts 55°
2026-05-04 16:16 50.87774 18.18022 34295 ft 447 kts 55°
2026-05-04 16:16 50.92807 18.30321 33517 ft 441 kts 56°
2026-05-04 16:17 50.96124 18.38492 32961 ft 438 kts 56°
2026-05-04 16:18 51.01022 18.50601 32171 ft 432 kts 56°
2026-05-04 16:18 51.02628 18.54579 31916 ft 431 kts 56°
2026-05-04 16:19 51.07463 18.66602 31155 ft 427 kts 56°
2026-05-04 16:19 51.10642 18.74538 30661 ft 424 kts 56°
2026-05-04 16:20 51.15349 18.86331 29907 ft 420 kts 56°
2026-05-04 16:20 51.18460 18.94155 29342 ft 416 kts 56°
2026-05-04 16:21 51.23062 19.05767 28525 ft 412 kts 56°
2026-05-04 16:22 51.26112 19.13510 27981 ft 409 kts 56°
2026-05-04 16:22 51.30612 19.24942 27203 ft 404 kts 56°
2026-05-04 16:23 51.34991 19.36133 26190 ft 389 kts 57°
2026-05-04 16:24 51.40674 19.50645 23696 ft 379 kts 57°
2026-05-04 16:25 51.43452 19.57727 22141 ft 369 kts 57°
2026-05-04 16:26 51.48819 19.71473 19045 ft 361 kts 58°
2026-05-04 16:26 51.52810 19.81752 18257 ft 364 kts 58°
2026-05-04 16:27 51.55478 19.88632 17694 ft 358 kts 58°
2026-05-04 16:28 51.59359 19.98687 16408 ft 347 kts 58°
2026-05-04 16:28 51.63115 20.08459 15176 ft 340 kts 58°
2026-05-04 16:29 51.67989 20.21181 13651 ft 329 kts 58°
2026-05-04 16:30 51.71549 20.30534 12449 ft 322 kts 58°
2026-05-04 16:31 51.73862 20.36623 11679 ft 317 kts 58°
2026-05-04 16:31 51.77279 20.45636 10532 ft 313 kts 58°
2026-05-04 16:32 51.80665 20.54605 9370 ft 309 kts 58°
2026-05-04 16:33 51.82870 20.60471 8619 ft 305 kts 59°
2026-05-04 16:33 51.85061 20.66312 7878 ft 301 kts 59°
2026-05-04 16:34 51.87210 20.72051 7139 ft 298 kts 59°
2026-05-04 16:34 51.88280 20.74912 6769 ft 297 kts 59°
2026-05-04 16:35 51.91467 20.83459 5643 ft 292 kts 58°
2026-05-04 16:35 51.94567 20.91776 4564 ft 285 kts 58°
2026-05-04 16:36 51.95589 20.94523 4197 ft 284 kts 58°
2026-05-04 16:36 51.97554 20.99835 3912 ft 262 kts 59°
2026-05-04 16:37 51.99364 21.04733 3700 ft 249 kts 59°
2026-05-04 16:37 52.00275 21.07054 3587 ft 237 kts 49°
2026-05-04 16:37 52.03064 21.08412 3067 ft 211 kts 338°
2026-05-04 16:38 52.05534 21.06342 2519 ft 190 kts 328°
2026-05-04 16:39 52.08762 21.03529 1840 ft 160 kts 327°
2026-05-04 16:39 52.10609 21.01920 1442 ft 145 kts 327°
2026-05-04 16:40 52.12375 21.00380 1073 ft 145 kts 327°
2026-05-04 16:40 52.14180 20.98806 676 ft 148 kts 327°
2026-05-04 16:41 52.15984 20.97224 352 ft 141 kts 328°
2026-05-04 16:41 52.17429 20.96065 338 ft 20 kts 358°
2026-05-04 16:42 52.17584 20.96171 337 ft 10 kts 97°
2026-05-04 16:43 52.17457 20.96342 336 ft 15 kts 150°
2026-05-04 16:43 52.17249 20.96521 337 ft 19 kts 152°
2026-05-04 16:43 52.17130 20.96624 338 ft 20 kts 152°
2026-05-04 16:44 52.16687 20.97040 338 ft 11 kts 100°
2026-05-04 16:45 52.16798 20.97155 337 ft 13 kts 332°
2026-05-04 16:46 52.16947 20.97149 338 ft 8 kts 68°
2026-05-04 16:46 52.16958 20.97192 337 ft 0 kts 68°